User: anonymous   Login
Location: Red Deer
(52.2681°N, 113.8112°W)
Time: 08:04:31
(UTC-07:00)
Language:

BlueWalker 3 - Orbit

View from above orbital plane
View from above orbital plane
View from above satellite
View from above satellite

Ground track
Ground track

The orbit data is extracted from the following two-line orbital elements,

1 53807U 22111AL  23335.42601696  .00009576  00000-0  41439-3 0  9991
2 53807  53.2373  27.2352 0010304 198.9761 161.0855 15.23060590 67918
Epoch (UTC): 01 December 2023 10:13:27
Eccentricity: 0.0010304
inclination: 53.2373°
perigee height: 489 km
apogee height: 504 km
right ascension of ascending node: 27.2352°
argument of perigee: 198.9761°
revolutions per day: 15.23060590
mean anomaly at epoch: 161.0855°
orbit number at epoch: 6791

The dashed part of the orbit path shows where the satellite is in the earth's shadow,  

DLR